Wind_Speed
11 14 13 18 16 17 18 13 9 10 10 12 14 16 17 18 17 15 14 12 11 11 11 10 11 11 13 16 18 20 22 28 33 30 32 32 30 30 27 25 26 25 23
9 11 16 17 15 18 22 17 13 12 11 13 14 15 17 17 17 15 14 12 11 11 12 11 11 13 16 20 21 24 27 28 32 32 35 34 30 30 29 26 24 25 22
9 12 16 21 21 23 26 21 17 15 12 14 14 17 18 17 18 16 15 14 12 12 13 11 13 15 18 21 25 26 28 31 28 35 37 32 31 31 29 27 25 22 22
11 10 11 19 23 21 27 24 20 18 13 14 15 17 19 19 18 18 16 16 13 12 13 13 15 18 22 25 26 29 30 31 35 30 32 37 34 29 28 26 23 23 22
18 14 12 11 17 22 29 26 25 21 16 15 15 18 18 16 18 19 17 17 13 13 14 14 17 21 25 29 33 32 29 31 33 31 37 36 31 27 26 24 23 21 20
19 13 12 14 17 19 26 31 32 25 19 18 16 19 19 17 17 18 18 15 14 14 13 13 18 22 28 32 34 35 33 31 34 31 31 28 27 27 24 20 18 17 13
18 19 19 20 20 22 25 26 31 25 22 25 21 21 21 20 18 16 16 14 12 11 13 18 21 25 31 33 32 31 32 32 31 30 26 24 22 20 15 12 15 16 14
20 18 25 22 21 23 25 25 28 29 27 27 27 20 21 20 15 14 14 11 10 12 16 20 24 29 33 32 29 29 27 26 27 27 25 22 21 18 15 18 20 17 13
16 13 17 18 22 19 22 30 32 26 28 32 27 21 20 19 13 13 12 10 12 13 18 23 27 32 33 31 28 24 23 23 28 26 24 20 20 19 18 18 19 16 12
7 15 16 20 25 24 25 27 31 29 33 30 25 19 22 15 11 10 12 11 11 17 21 25 30 33 32 29 24 21 21 25 25 20 21 19 17 17 15 15 16 16 17
17 22 22 18 23 27 33 30 34 28 32 31 14 17 16 12 11 10 12 13 14 19 24 28 31 32 28 24 21 21 26 26 21 18 15 16 16 18 16 17 18 19 17
20 21 20 23 26 32 36 30 33 30 32 27 12 12 11 10 12 13 14 15 18 22 26 29 30 26 22 21 19 22 23 22 22 18 15 15 17 16 18 19 19 20 20
22 23 25 24 25 27 22 30 24 29 32 12 9 11 8 13 10 12 14 14 19 23 26 27 25 20 20 19 21 19 20 22 20 18 16 16 16 16 16 17 20 22 21
24 23 25 27 24 21 29 27 28 29 24 7 10 8 10 9 13 14 13 18 22 24 24 23 20 18 17 19 17 18 19 20 18 19 18 17 16 16 17 19 21 22 20
27 25 26 25 18 19 18 21 22 27 16 10 8 11 10 14 15 15 17 20 23 21 19 19 20 18 18 19 20 18 17 19 20 21 20 19 17 18 18 19 20 20 20
28 25 25 24 16 17 23 22 20 17 13 11 9 13 13 14 12 14 17 21 19 15 16 19 19 20 20 20 21 18 18 20 21 22 23 22 20 19 18 19 21 22 21
28 25 24 21 16 12 13 18 15 17 14 11 11 11 10 10 12 15 18 16 14 15 18 20 21 21 20 19 18 18 20 22 23 23 23 22 22 22 23 22 23 24 24
29 25 22 21 18 17 12 20 16 17 8 8 11 8 9 11 13 16 14 14 15 18 20 22 22 21 19 17 17 19 22 24 24 23 22 23 23 24 23 23 24 25 24
27 22 21 17 8 12 20 17 21 9 8 9 8 8 8 10 12 13 13 14 16 19 22 21 21 19 17 16 18 21 22 21 21 22 24 25 26 26 25 25 24 24 23
23 20 18 14 16 22 19 28 13 13 8 4 8 4 7 8 11 12 13 15 18 21 22 20 19 17 16 17 20 21 20 22 23 23 24 26 27 28 27 26 25 24 24
23 19 19 12 14 22 27 19 17 13 6 2 2 4 6 9 13 14 15 16 20 22 20 19 17 15 16 19 20 20 22 23 23 24 26 27 28 27 27 26 23 21 19
19 17 18 19 25 17 22 15 16 9 2 4 4 4 7 11 14 16 17 19 21 20 17 17 15 16 19 20 20 23 23 23 25 27 27 27 27 25 23 20 19 18 19
21 17 19 21 35 28 20 16 15 7 2 4 4 6 9 13 15 16 17 20 19 17 16 15 16 18 18 21 24 25 24 27 28 28 28 27 26 24 24 23 21 20 19
26 22 27 30 39 25 17 18 14 5 2 4 6 8 11 13 14 15 19 18 16 16 16 15 17 17 20 23 24 25 29 30 31 30 28 26 24 22 20 19 16 15 15
27 26 31 43 34 23 21 16 9 3 2 5 7 9 10 11 14 17 16 16 15 16 15 16 17 20 22 22 26 28 31 31 32 32 30 28 23 20 18 13 12 11 9
34 38 34 30 30 25 18 12 6 2 3 5 6 7 9 12 15 15 15 15 15 15 16 16 19 21 21 25 28 31 31 33 32 29 26 22 15 13 12 11 9 6 6
Wind_Direction
265 267 217 219 232 216 242 247 267 288 306 317 324 329 327 323 317 308 302 302 304 303 296 294 301 313 317 316 315 316 317 318 310 308 316 321 316 314 316 312 308 305 305
285 258 231 233 247 238 238 243 254 272 291 311 321 324 322 320 311 306 301 300 296 294 290 292 302 310 316 320 316 316 324 308 304 305 310 314 313 314 313 310 307 304 304
311 292 271 242 239 244 240 242 249 264 282 305 319 325 323 319 310 305 301 297 293 290 287 291 298 309 314 321 322 320 310 310 300 299 304 312 313 312 309 308 306 302 298
276 295 282 241 247 237 247 247 250 257 276 296 320 321 323 315 312 304 303 293 290 288 286 292 303 315 322 323 319 308 303 309 303 308 303 316 311 308 306 304 303 302 300
259 262 266 264 243 238 246 253 255 259 267 286 310 313 315 314 306 302 300 294 292 285 281 295 312 319 319 315 311 309 301 299 307 293 299 307 308 307 304 298 298 300 300
254 259 261 252 230 226 247 257 262 263 270 278 300 302 316 313 303 298 295 292 283 282 288 304 311 315 316 314 308 307 304 286 304 310 311 311 312 310 309 299 298 299 294
274 267 269 271 254 240 240 246 262 263 265 277 287 301 311 310 302 296 291 290 284 290 301 300 303 308 316 317 311 308 308 310 314 320 322 321 323 326 326 319 314 311 300
295 274 292 266 264 258 249 244 251 256 259 277 279 293 306 301 301 298 287 281 289 298 304 295 310 313 317 317 308 306 309 312 324 320 320 322 327 326 321 313 311 311 308
284 281 289 274 268 258 271 259 243 253 257 270 276 289 302 295 295 283 282 280 295 294 310 308 311 315 317 316 313 313 312 310 323 318 316 319 323 324 322 313 309 315 313
236 286 295 271 264 256 258 265 263 246 257 265 263 300 294 286 280 272 280 267 291 308 308 312 315 315 318 316 315 313 312 316 321 309 301 310 324 322 317 319 320 314 309
286 280 273 278 268 267 267 271 252 241 255 259 260 269 277 281 269 273 288 282 286 304 306 310 314 317 316 315 316 317 320 325 329 318 302 303 311 317 304 313 318 320 314
305 309 295 274 273 267 274 258 236 238 248 249 267 264 265 257 249 257 273 291 304 306 307 313 317 316 315 316 321 320 323 332 334 329 318 303 302 308 301 300 310 317 319
304 307 310 284 291 274 292 272 238 247 254 247 279 251 247 265 258 273 280 295 306 308 313 317 316 318 314 325 323 320 334 336 337 337 327 319 312 304 301 301 305 309 313
300 301 306 300 276 295 292 265 231 245 243 257 260 236 248 258 280 289 303 315 313 315 318 317 319 320 328 324 322 340 335 334 340 338 333 325 314 309 306 309 306 305 301
296 299 301 303 293 293 255 286 265 248 228 254 235 230 243 257 269 295 310 313 316 317 319 317 326 329 329 333 341 341 335 334 336 334 333 329 323 315 312 310 311 313 312
293 299 303 313 286 291 281 275 247 224 238 265 229 240 238 258 278 298 311 314 317 320 319 323 332 335 332 334 334 334 335 332 330 327 325 324 322 320 315 310 311 312 312
288 294 298 312 288 270 274 243 222 219 238 247 245 229 252 275 285 308 316 315 317 324 327 330 335 329 324 330 330 331 330 328 329 329 326 320 316 312 311 307 304 304 307
282 290 298 304 286 262 281 262 233 227 261 237 226 221 255 280 311 317 314 315 330 330 330 335 328 323 323 329 329 327 328 330 330 329 328 326 323 320 314 309 306 305 306
278 290 291 296 245 261 233 223 216 221 201 210 216 233 292 314 320 317 316 327 325 328 333 327 323 324 328 332 330 330 331 331 331 331 329 326 322 320 317 314 310 309 309
274 280 285 275 267 210 218 202 193 181 161 161 209 255 327 316 325 315 331 330 331 331 327 325 326 326 332 332 333 331 330 330 329 328 326 322 320 319 317 315 311 308 306
263 263 284 251 232 214 213 194 164 151 124 113 31 346 302 333 328 337 336 336 331 329 328 328 326 331 336 338 337 334 330 328 326 326 325 323 319 316 312 312 313 313 314
258 255 266 219 215 233 207 174 159 157 127 27 8 324 334 332 334 340 340 333 329 329 331 329 332 339 342 343 337 331 329 328 327 326 325 323 322 321 321 318 314 313 313
246 256 241 208 212 221 205 163 153 170 54 355 341 349 333 331 340 338 331 328 329 335 332 335 341 345 347 341 335 332 332 329 328 328 326 324 320 318 318 315 312 312 311
238 260 240 220 194 192 180 154 166 164 353 348 350 335 331 337 334 328 329 329 337 336 340 346 349 350 345 340 337 336 332 331 329 328 325 322 320 320 322 324 321 318 319
239 227 224 197 188 174 162 152 144 168 353 350 335 326 334 332 330 331 329 338 341 345 351 352 352 348 344 342 339 337 335 333 332 328 325 323 321 322 329 331 341 339 344
176 183 163 156 157 143 133 137 137 126 5 323 315 338 333 334 334 334 342 345 348 354 355 356 351 347 346 343 342 340 338 337 336 339 339 336 334 335 341 354 3 15 29
Height
3120 3121 3122 3126 3128 3128 3132 3131 3129 3129 3129 3127 3123 3119 3116 3114 3111 3110 3108 3106 3104 3104 3103 3102 3101 3099 3098 3097 3094 3091 3088 3084 3079 3077 3073 3069 3063 3058 3054 3050 3046 3042 3039
3117 3118 3119 3122 3122 3126 3128 3127 3126 3127 3126 3123 3119 3116 3114 3110 3109 3106 3104 3103 3103 3102 3101 3099 3097 3096 3096 3094 3091 3087 3084 3080 3075 3070 3067 3063 3058 3052 3047 3043 3040 3036 3033
3116 3118 3119 3118 3118 3121 3124 3123 3123 3123 3122 3120 3117 3113 3110 3106 3104 3102 3100 3099 3100 3099 3098 3095 3094 3093 3092 3090 3087 3083 3079 3074 3070 3064 3059 3055 3050 3045 3040 3035 3032 3030 3027
3114 3114 3114 3113 3114 3116 3119 3119 3118 3118 3117 3117 3113 3110 3107 3104 3101 3099 3096 3097 3096 3096 3095 3093 3092 3090 3087 3085 3082 3078 3074 3070 3064 3058 3053 3048 3042 3037 3033 3029 3027 3023 3021
3110 3110 3110 3109 3108 3110 3113 3115 3114 3114 3113 3113 3110 3107 3104 3100 3098 3096 3094 3093 3093 3093 3091 3091 3089 3086 3084 3080 3075 3071 3067 3062 3058 3052 3047 3040 3034 3030 3026 3023 3020 3018 3015
3106 3105 3104 3104 3103 3105 3108 3109 3109 3108 3108 3108 3105 3105 3100 3097 3096 3094 3093 3092 3091 3090 3089 3087 3085 3083 3080 3075 3069 3063 3059 3054 3050 3044 3039 3033 3028 3024 3020 3017 3015 3013 3011
3102 3101 3100 3100 3101 3100 3100 3101 3104 3104 3105 3104 3102 3100 3096 3095 3093 3092 3091 3090 3088 3088 3087 3085 3082 3079 3074 3069 3063 3057 3051 3046 3042 3037 3033 3028 3025 3020 3017 3015 3012 3009 3007
3097 3097 3095 3095 3095 3095 3092 3092 3097 3100 3100 3099 3097 3096 3092 3091 3089 3088 3087 3087 3086 3084 3083 3081 3078 3074 3069 3063 3057 3052 3046 3041 3037 3033 3028 3024 3021 3018 3015 3012 3010 3007 3005
3093 3092 3091 3090 3090 3089 3088 3086 3086 3093 3093 3093 3092 3091 3088 3087 3085 3084 3084 3083 3082 3080 3078 3077 3074 3068 3063 3057 3051 3046 3043 3038 3032 3027 3023 3021 3017 3014 3012 3009 3007 3004 3002
3087 3087 3086 3085 3085 3084 3080 3081 3081 3084 3085 3087 3086 3085 3085 3083 3081 3081 3081 3079 3077 3076 3075 3072 3068 3063 3057 3050 3045 3041 3038 3034 3029 3024 3020 3016 3014 3011 3009 3006 3004 3001 2999
3084 3082 3081 3081 3081 3079 3078 3075 3076 3076 3077 3080 3080 3081 3080 3078 3079 3080 3079 3076 3074 3072 3069 3067 3062 3057 3051 3045 3041 3037 3033 3029 3024 3019 3016 3013 3010 3008 3006 3003 3001 2998 2996
3078 3076 3075 3074 3074 3072 3069 3060 3066 3065 3072 3072 3074 3073 3075 3075 3076 3077 3075 3072 3069 3068 3066 3060 3056 3051 3046 3041 3038 3034 3029 3024 3020 3015 3011 3009 3007 3004 3002 3000 2997 2995 2992
3072 3070 3069 3068 3067 3065 3063 3059 3062 3063 3067 3068 3069 3070 3070 3073 3073 3072 3070 3068 3066 3063 3060 3055 3051 3046 3042 3038 3034 3030 3025 3021 3016 3012 3008 3005 3003 3000 2999 2997 2994 2991 2989
3067 3065 3063 3062 3060 3059 3058 3054 3054 3056 3061 3063 3063 3064 3068 3070 3069 3067 3065 3063 3061 3058 3054 3050 3047 3043 3038 3035 3031 3025 3021 3017 3013 3009 3005 3002 2999 2997 2995 2992 2990 2987 2985
3062 3060 3058 3055 3053 3053 3053 3051 3052 3054 3058 3060 3061 3063 3065 3067 3065 3063 3061 3059 3057 3053 3050 3047 3042 3038 3034 3030 3026 3022 3017 3013 3009 3005 3002 2999 2996 2993 2991 2988 2985 2983 2980
3056 3054 3053 3050 3049 3049 3049 3047 3049 3052 3055 3057 3058 3061 3062 3063 3061 3060 3058 3056 3052 3049 3046 3041 3037 3033 3029 3025 3021 3017 3013 3010 3006 3002 2998 2995 2992 2990 2987 2985 2981 2978 2975
3049 3047 3048 3047 3045 3045 3045 3044 3047 3050 3053 3054 3056 3058 3059 3059 3058 3056 3054 3051 3049 3045 3041 3037 3032 3029 3025 3020 3016 3013 3010 3006 3002 2998 2994 2991 2988 2985 2982 2979 2977 2974 2971
3043 3042 3042 3042 3040 3041 3042 3044 3046 3048 3050 3052 3054 3056 3056 3056 3055 3053 3050 3047 3043 3040 3037 3032 3029 3025 3021 3015 3011 3009 3006 3002 2998 2994 2990 2986 2983 2979 2977 2974 2971 2967 2965
3037 3037 3036 3036 3036 3037 3038 3040 3042 3046 3049 3051 3052 3053 3054 3053 3051 3049 3047 3043 3040 3037 3033 3029 3025 3020 3016 3011 3008 3005 3002 2998 2994 2990 2986 2982 2978 2975 2972 2968 2965 2961 2958
3031 3032 3032 3032 3030 3032 3032 3036 3041 3045 3048 3049 3050 3051 3052 3051 3049 3047 3043 3040 3037 3033 3029 3025 3020 3016 3011 3008 3005 3001 2998 2994 2991 2987 2983 2978 2974 2970 2965 2962 2958 2955 2952
3024 3026 3026 3027 3026 3026 3028 3032 3040 3044 3046 3048 3049 3050 3050 3048 3046 3042 3039 3036 3033 3029 3025 3021 3016 3012 3008 3004 3001 2998 2995 2991 2987 2983 2978 2974 2969 2964 2960 2956 2952 2949 2947
3017 3019 3019 3022 3022 3024 3028 3031 3038 3042 3045 3047 3048 3048 3046 3045 3042 3038 3035 3034 3030 3026 3021 3016 3012 3008 3004 3001 2999 2996 2992 2988 2983 2979 2973 2968 2962 2958 2954 2950 2947 2944 2942
3009 3011 3014 3016 3016 3020 3026 3031 3036 3040 3043 3046 3046 3045 3043 3041 3037 3035 3034 3031 3027 3021 3017 3013 3009 3005 3002 2999 2996 2992 2988 2983 2978 2973 2968 2963 2958 2953 2950 2946 2942 2940 2937
3001 3003 3006 3009 3010 3017 3025 3031 3036 3040 3043 3043 3042 3042 3040 3037 3036 3035 3031 3027 3022 3018 3014 3011 3007 3003 3000 2997 2993 2989 2983 2978 2972 2966 2961 2956 2952 2947 2944 2940 2937 2934 2932
2992 2994 3000 3000 3008 3020 3027 3031 3036 3039 3040 3040 3040 3039 3037 3036 3035 3031 3027 3022 3019 3015 3012 3008 3005 3002 2998 2995 2990 2985 2979 2973 2966 2960 2954 2949 2945 2942 2939 2936 2933 2931 2929
2986 2990 2996 3004 3014 3021 3027 3033 3036 3037 3037 3038 3038 3037 3036 3034 3031 3028 3023 3019 3016 3013 3010 3007 3004 3001 2997 2993 2987 2981 2975 2968 2961 2955 2949 2944 2941 2938 2936 2934 2932 2930 2929